• In Belarus
  • List of Countries
  • For 7 days
  • Water Temperature
  • Satellite Maps
  • Weather Map
  • Weather Widgets
  • user-avatar
    Login

    Hourly Weather San Luis

    Today, 18 December, Monday

    Time Temperature Precipitation Wind Pressure Humidity
    00:00 +18°C° 0 mm 4 mps 702 mmHg 26%
    01:00 +18°C° 0 mm 4 mps 701 mmHg 26%
    02:00 +18°C° 0 mm 4 mps 701 mmHg 26%
    03:00 +16°C° 0 mm 5 mps 701 mmHg 27%
    04:00 +16°C° 0 mm 5 mps 700 mmHg 28%
    05:00 +16°C° 0 mm 5 mps 700 mmHg 29%
    06:00 +19°C° 0 mm 6 mps 700 mmHg 27%
    07:00 +21°C° 0 mm 7 mps 700 mmHg 25%
    08:00 +24°C° 0 mm 9 mps 700 mmHg 24%
    09:00 +26°C° 0 mm 9 mps 700 mmHg 22%
    10:00 +28°C° 0 mm 9 mps 700 mmHg 20%
    11:00 +31°C° 0 mm 9 mps 699 mmHg 18%
    12:00 +32°C° 0 mm 8 mps 699 mmHg 18%
    13:00 +33°C° 0 mm 8 mps 698 mmHg 18%
    14:00 +34°C° 0 mm 8 mps 698 mmHg 18%
    15:00 +34°C° 0 mm 7 mps 697 mmHg 19%
    16:00 +34°C° 0 mm 7 mps 697 mmHg 20%
    17:00 +34°C° 0 mm 7 mps 696 mmHg 21%
    18:00 +32°C° 0 mm 7 mps 696 mmHg 25%
    19:00 +29°C° 0 mm 6 mps 697 mmHg 29%
    20:00 +27°C° 0 mm 6 mps 697 mmHg 33%
    21:00 +26°C° 0 mm 6 mps 697 mmHg 37%
    22:00 +24°C° 0 mm 7 mps 697 mmHg 40%
    23:00 +24°C° 0 mm 8 mps 698 mmHg 44%

    Tomorrow, 19 December, Tuesday

    Time Temperature Precipitation Wind Pressure Humidity
    00:00 +23°C° 0 mm 8 mps 697 mmHg 43%
    01:00 +23°C° 0 mm 8 mps 697 mmHg 43%
    02:00 +23°C° 0 mm 7 mps 697 mmHg 43%
    03:00 +23°C° 0 mm 7 mps 697 mmHg 44%
    04:00 +22°C° 0 mm 6 mps 697 mmHg 44%
    05:00 +22°C° 0 mm 6 mps 697 mmHg 45%
    06:00 +23°C° 0 mm 6 mps 698 mmHg 43%
    07:00 +26°C° 0 mm 6 mps 698 mmHg 42%
    08:00 +28°C° 0 mm 6 mps 699 mmHg 40%
    09:00 +29°C° 0 mm 5 mps 699 mmHg 37%
    10:00 +32°C° 0 mm 4 mps 699 mmHg 34%
    11:00 +34°C° 0 mm 4 mps 699 mmHg 31%
    12:00 +34°C° 0 mm 3 mps 699 mmHg 30%
    13:00 +35°C° 0 mm 3 mps 698 mmHg 29%
    14:00 +36°C° 0 mm 3 mps 697 mmHg 27%
    15:00 +36°C° 0 mm 3 mps 697 mmHg 27%
    16:00 +36°C° 0 mm 3 mps 696 mmHg 26%
    17:00 +36°C° 0 mm 3 mps 696 mmHg 26%
    18:00 +35°C° 0.1 mm 4 mps 696 mmHg 30%
    19:00 +33°C° 0.1 mm 4 mps 696 mmHg 34%
    20:00 +30°C° 0.1 mm 5 mps 696 mmHg 38%
    21:00 +29°C° 0 mm 5 mps 696 mmHg 42%
    22:00 +28°C° 0 mm 6 mps 696 mmHg 46%
    23:00 +27°C° 0 mm 6 mps 696 mmHg 51%

    Day after tomorrow, 20 December, Wednesday

    Time Temperature Precipitation Wind Pressure Humidity
    00:00 +27°C° 0 mm 7 mps 696 mmHg 53%
    01:00 +26°C° 0 mm 7 mps 695 mmHg 55%
    02:00 +26°C° 0 mm 8 mps 695 mmHg 57%
    03:00 +24°C° 0 mm 8 mps 695 mmHg 59%
    04:00 +24°C° 0 mm 8 mps 695 mmHg 62%
    05:00 +24°C° 0 mm 8 mps 694 mmHg 65%
    06:00 +26°C° 0 mm 8 mps 695 mmHg 60%
    07:00 +28°C° 0 mm 9 mps 695 mmHg 56%
    08:00 +29°C° 0 mm 9 mps 695 mmHg 51%
    09:00 +32°C° 0 mm 8 mps 695 mmHg 45%
    10:00 +34°C° 0 mm 8 mps 695 mmHg 38%
    11:00 +36°C° 0 mm 7 mps 695 mmHg 32%
    12:00 +38°C° 0 mm 7 mps 695 mmHg 29%
    13:00 +39°C° 0 mm 6 mps 694 mmHg 26%
    14:00 +40°C° 0 mm 6 mps 693 mmHg 22%
    15:00 +40°C° 0 mm 6 mps 693 mmHg 22%
    16:00 +40°C° 0 mm 5 mps 692 mmHg 22%
    17:00 +40°C° 0 mm 5 mps 692 mmHg 21%
    18:00 +37°C° 0 mm 5 mps 692 mmHg 26%
    19:00 +35°C° 0 mm 5 mps 692 mmHg 30%
    20:00 +33°C° 0 mm 5 mps 692 mmHg 34%
    21:00 +32°C° 0.1 mm 6 mps 692 mmHg 39%
    22:00 +32°C° 0.1 mm 7 mps 693 mmHg 44%
    23:00 +30°C° 0.1 mm 7 mps 693 mmHg 48%

    21 December, Thursday

    Time Temperature Precipitation Wind Pressure Humidity
    00:00 +29°C° 0.3 mm 7 mps 693 mmHg 53%
    01:00 +28°C° 0.3 mm 6 mps 693 mmHg 57%
    02:00 +27°C° 0.3 mm 5 mps 693 mmHg 62%
    03:00 +26°C° 2 mm 5 mps 694 mmHg 67%
    04:00 +25°C° 2 mm 5 mps 694 mmHg 72%
    05:00 +23°C° 2 mm 5 mps 695 mmHg 78%
    06:00 +23°C° 0.1 mm 5 mps 696 mmHg 75%
    07:00 +24°C° 0.1 mm 6 mps 697 mmHg 73%
    08:00 +24°C° 0.1 mm 7 mps 697 mmHg 71%
    09:00 +26°C° 1 mm 6 mps 697 mmHg 67%
    10:00 +27°C° 1 mm 6 mps 698 mmHg 63%
    11:00 +28°C° 1 mm 5 mps 698 mmHg 59%
    12:00 +29°C° 1 mm 5 mps 697 mmHg 55%
    13:00 +30°C° 1 mm 5 mps 696 mmHg 51%
    14:00 +32°C° 1 mm 4 mps 696 mmHg 48%
    15:00 +32°C° 0.4 mm 4 mps 695 mmHg 46%
    16:00 +33°C° 0.4 mm 4 mps 695 mmHg 44%
    17:00 +33°C° 0.4 mm 3 mps 694 mmHg 42%
    18:00 +32°C° 0.3 mm 4 mps 694 mmHg 45%
    19:00 +30°C° 0.3 mm 4 mps 694 mmHg 48%
    20:00 +29°C° 0.3 mm 4 mps 694 mmHg 51%
    21:00 +28°C° 0.2 mm 4 mps 694 mmHg 54%
    22:00 +28°C° 0.2 mm 4 mps 694 mmHg 56%
    23:00 +27°C° 0.2 mm 3 mps 694 mmHg 59%

    22 December, Friday

    Time Temperature Precipitation Wind Pressure Humidity
    00:00 +26°C° 0.2 mm 4 mps 693 mmHg 60%
    01:00 +26°C° 0.2 mm 5 mps 693 mmHg 61%
    02:00 +26°C° 0.2 mm 5 mps 693 mmHg 63%
    03:00 +25°C° 0.2 mm 5 mps 693 mmHg 65%
    04:00 +25°C° 0.2 mm 4 mps 693 mmHg 67%
    05:00 +25°C° 0.2 mm 3 mps 693 mmHg 69%
    06:00 +26°C° 1 mm 3 mps 694 mmHg 66%
    07:00 +27°C° 1 mm 3 mps 695 mmHg 62%
    08:00 +28°C° 1 mm 2 mps 695 mmHg 58%
    09:00 +28°C° 0.2 mm 4 mps 696 mmHg 54%
    10:00 +29°C° 0.2 mm 6 mps 696 mmHg 50%
    11:00 +29°C° 0.2 mm 8 mps 696 mmHg 46%
    12:00 +31°C° 0.2 mm 9 mps 696 mmHg 42%
    13:00 +31°C° 0.2 mm 9 mps 696 mmHg 38%
    14:00 +32°C° 0.2 mm 9 mps 695 mmHg 34%
    15:00 +32°C° 0 mm 10 mps 695 mmHg 32%
    16:00 +31°C° 0 mm 10 mps 695 mmHg 29%
    17:00 +31°C° 0 mm 10 mps 695 mmHg 27%
    18:00 +29°C° 0 mm 9 mps 696 mmHg 28%
    19:00 +27°C° 0 mm 8 mps 696 mmHg 28%
    20:00 +24°C° 0 mm 7 mps 696 mmHg 29%
    21:00 +24°C° 0 mm 8 mps 697 mmHg 28%
    22:00 +23°C° 0 mm 8 mps 697 mmHg 28%
    23:00 +22°C° 0 mm 8 mps 698 mmHg 28%

    23 December, Saturday

    Time Temperature Precipitation Wind Pressure Humidity
    00:00 +21°C° 0 mm 7 mps 698 mmHg 28%
    01:00 +20°C° 0 mm 7 mps 698 mmHg 28%
    02:00 +18°C° 0 mm 7 mps 698 mmHg 29%
    03:00 +19°C° 0 mm 6 mps 698 mmHg 29%
    04:00 +19°C° 0 mm 6 mps 698 mmHg 29%
    05:00 +17°C° 0 mm 6 mps 699 mmHg 30%
    06:00 +20°C° 0 mm 6 mps 699 mmHg 27%
    07:00 +21°C° 0 mm 6 mps 700 mmHg 24%
    08:00 +23°C° 0 mm 7 mps 700 mmHg 21%
    09:00 +26°C° 0 mm 7 mps 700 mmHg 20%
    10:00 +27°C° 0 mm 6 mps 700 mmHg 18%
    11:00 +29°C° 0 mm 6 mps 700 mmHg 17%
    12:00 +30°C° 0 mm 6 mps 699 mmHg 16%
    13:00 +32°C° 0 mm 6 mps 699 mmHg 16%
    14:00 +33°C° 0 mm 5 mps 698 mmHg 16%
    15:00 +33°C° 0 mm 5 mps 697 mmHg 17%
    16:00 +33°C° 0 mm 5 mps 697 mmHg 17%
    17:00 +33°C° 0 mm 6 mps 696 mmHg 18%
    18:00 +30°C° 0 mm 6 mps 696 mmHg 22%
    19:00 +28°C° 0 mm 6 mps 696 mmHg 26%
    20:00 +26°C° 0 mm 7 mps 696 mmHg 29%
    21:00 +24°C° 0 mm 7 mps 696 mmHg 32%
    22:00 +24°C° 0 mm 7 mps 696 mmHg 34%
    23:00 +23°C° 0 mm 7 mps 696 mmHg 37%
    Show more